Bedford, MA

8:20 AM EDT on June 25, 2017 (GMT -0400)
Hanscom

Weather History for KBED - September, 2013

Change the Weather History Date:

Sunday, September 15, 2013

  Actual Average Record
Temperature  
Mean Temperature 57 °F -  
Max Temperature 71 °F 71 °F 88 °F (1993)
Min Temperature 44 °F 50 °F 33 °F (1963)
Degree Days  
Heating Degree Days 8    
Growing Degree Days 7 (Base 50)    
Moisture  
Dew Point 48 °F    
Average Humidity 74    
Maximum Humidity 100    
Minimum Humidity 44    
Precipitation  
Precipitation 0.00 in - - ()
Sea Level Pressure  
Sea Level Pressure 30.13 in    
Wind  
Wind Speed 2 mph (SW)    
Max Wind Speed 8 mph    
Max Gust Speed 16 mph    
Visibility 10 miles    
Events      
Averages and records for this station are not official NWS values.
T = Trace of Precipitation, MM = Missing Value Source: NWS Daily Summary

Daily Weather History Graph

Daily Weather History Graph

Search for Another Location

Airport or City:

Trip Planner

Search our weather history database for the weather conditions in past years. The results will help you decide how hot, cold, wet, or windy it might be!

Date:

Astronomy

Sep. 15, 2013 Rise Set
Actual Time 6:25 AM EDT 6:54 PM EDT
Civil Twilight 5:57 AM EDT 7:22 PM EDT
Nautical Twilight 5:23 AM EDT 7:55 PM EDT
Astronomical Twilight 4:49 AM EDT 8:30 PM EDT
Moon 4:23 PM EDT (9/15) 1:55 AM EDT (9/15)
Length of Visible Light 13h 25m
Length of Day
12h 29m
Waxing Gibbous, 82% of the Moon is Illuminated
Sep 15
Waxing Gibbous
Sep 19
Full
Sep 26
Last Quarter
Oct 4
New
Oct 11
First Quarter

Hourly Weather History & Observations

Time (EDT) Temp. Dew Point Humidity Pressure Visibility Wind Dir Wind Speed Gust Speed Precip Events Conditions
12:56 AM 48.0 °F 46.9 °F 96% 30.10 in 10.0 mi Calm Calm - N/A   Clear
1:56 AM 46.9 °F 46.9 °F 100% 30.11 in 10.0 mi Calm Calm - N/A   Clear
2:56 AM 46.0 °F 45.0 °F 96% 30.11 in 10.0 mi Calm Calm - N/A   Clear
3:56 AM 46.0 °F 45.0 °F 96% 30.12 in 10.0 mi Calm Calm - N/A   Clear
4:56 AM 46.0 °F 45.0 °F 96% 30.14 in 10.0 mi Calm Calm - N/A   Clear
5:56 AM 44.1 °F 43.0 °F 96% 30.17 in 10.0 mi Calm Calm - N/A   Clear
6:56 AM 46.0 °F 45.0 °F 96% 30.18 in 10.0 mi Calm Calm - N/A   Clear
7:56 AM 50.0 °F 48.9 °F 96% 30.18 in 10.0 mi WSW 3.5 mph - N/A   Clear
8:56 AM 57.0 °F 52.0 °F 83% 30.19 in 10.0 mi Calm Calm - N/A   Scattered Clouds
9:56 AM 61.0 °F 52.0 °F 72% 30.19 in 10.0 mi Variable 3.5 mph - N/A   Clear
10:56 AM 64.0 °F 48.0 °F 56% 30.19 in 10.0 mi West 6.9 mph - N/A   Clear
11:56 AM 66.0 °F 48.0 °F 52% 30.17 in 10.0 mi SW 8.1 mph - N/A   Clear
12:56 PM 66.9 °F 46.9 °F 49% 30.16 in 10.0 mi Variable 6.9 mph 16.1 mph N/A   Clear
1:56 PM 69.1 °F 48.9 °F 49% 30.14 in 10.0 mi SW 5.8 mph - N/A   Clear
2:56 PM 69.1 °F 46.0 °F 44% 30.12 in 10.0 mi West 5.8 mph - N/A   Clear
3:56 PM 70.0 °F 46.9 °F 44% 30.10 in 10.0 mi WSW 8.1 mph - N/A   Clear
4:56 PM 69.1 °F 46.0 °F 44% 30.09 in 10.0 mi WSW 6.9 mph - N/A   Clear
5:56 PM 64.0 °F 45.0 °F 50% 30.10 in 10.0 mi West 5.8 mph - N/A   Clear
6:56 PM 60.1 °F 48.0 °F 64% 30.09 in 10.0 mi SSW 4.6 mph - N/A   Clear
7:56 PM 57.9 °F 48.9 °F 72% 30.09 in 10.0 mi SSW 5.8 mph - N/A   Clear
8:56 PM 57.0 °F 50.0 °F 77% 30.10 in 10.0 mi WSW 3.5 mph - N/A   Clear
9:56 PM 57.0 °F 50.0 °F 77% 30.09 in 10.0 mi SW 6.9 mph - N/A   Clear
10:56 PM 55.9 °F 50.0 °F 80% 30.09 in 10.0 mi WSW 4.6 mph - N/A   Clear
11:56 PM 55.0 °F 50.0 °F 83% 30.09 in 10.0 mi SW 3.5 mph - N/A   Clear